Regional Weather Roundup
Issued by NWS Cleveland, OH

Home | Current Version | Previous Version | Graphics & Text | Print | Product List | Glossary On
Versions: 1 2 3 4 5 6 7 8 9 10 11 12 13 14 15 16 17 18 19 20 21 22 23 24 25 26 27 28 29 30 31 32 33 34 35 36 37 38 39 40 41 42 43 44 45 46 47 48 49 50
000
ASUS41 KCLE 250510
RWRCLE
OHIO REGIONAL WEATHER ROUNDUP
NATIONAL WEATHER SERVICE WILMINGTON, OH
100 AM EDT MON JUL 25 2016

NOTE: "FAIR" INDICATES FEW OR NO CLOUDS BELOW 12,000 FEET WITH NO
SIGNIFICANT WEATHER AND/OR OBSTRUCTIONS TO VISIBILITY.

OHZ001>008-015>018-024>027-034-035-043-044-250600-
   NORTHWEST OHIO

CITY           SKY/WX    TMP DP  RH WIND       PRES   REMARKS
DEFIANCE       FAIR      81  75  82 S7        29.92S
FINDLAY        FAIR      78  72  81 S8        29.94R
TOLEDO EXPRESS FAIR      77  75  93 S8        29.91S
TOLEDO EXEC    FAIR      78  76  93 S8        29.92S
LIMA           FAIR      79  75  87 S8        29.97R
$$

OHZ009>014-019>023-028>033-038-089-250600-
   NORTHEAST OHIO

CITY           SKY/WX    TMP DP  RH WIND       PRES   REMARKS
CLE-HOPKINS    FAIR      79  70  74 S8        29.96S
CLE-LAKEFRONT  FAIR      80  72  76 S12       29.92S
CUY CO. ARPT   NOT AVBL
LORAIN-ELYRIA  FAIR      76  69  79 S8        29.95S
ASHTABULA      FAIR      74  73  97 S6        29.96F
AKRON-CANTON   FAIR      75  72  90 S5        29.99F
WOOSTER        FAIR      71  68  90 CALM      29.99F
MANSFIELD      FAIR      75  71  87 S6        29.99S
YOUNGSTOWN     FAIR      73  70  90 S7        29.98F
$$

OHZ042-051>053-060>062-070>072-077>081-250600-
  SOUTHWEST OHIO

CITY           SKY/WX    TMP DP  RH WIND       PRES   REMARKS
CINC-COVINGTON FAIR      81  76  84 W3        30.00R
CINC-LUNKEN    FAIR      78  77  96 CALM      29.98R
HAMILTON       FAIR      78  75  90 CALM      29.99R
DAYTON         FAIR      80  74  81 SW7       30.00R
WRIGHT-PAT AFB FAIR      80  77  90 W1        29.98R
DAYTON GENERAL FAIR      80  72  76 S5        29.98S
WILMINGTON     FAIR      78  74  87 SW3       29.99S
$$

OHZ036-037-039>041-045>050-054>059-063>069-073>076-082>088-250600-
  CENTRAL AND SOUTHEAST OHIO

CITY           SKY/WX    TMP DP  RH WIND       PRES   REMARKS
COLUMBUS       FAIR      79  73  82 SE3       29.97S
OSU AIRPORT    FAIR      78  73  84 S5        29.98S
BOLTON FIELD   FAIR      76  74  94 S5        29.98S
RICKENBACK AFB FAIR      76  74  92 S5        29.97S
NEWARK         FAIR      74  72  93 CALM      29.98F FOG
MARION         FAIR      75  72  90 S8        29.98R
LANCASTER      FAIR      76  74  93 S3        29.99S
ZANESVILLE     FAIR      78  72  81 CALM      29.99F
NEW PHILLY     FAIR      76  71  85 SE5       29.98F
$$




USA.gov is the U.S. government's official web portal to all federal, state and local government web resources and services.